Burns, OR

11:07 AM PDT on July 28, 2017 (GMT -0700)
Burns Municipal

Weather History for KBNO - October, 2011

Change the Weather History Date:

Sunday, October 30, 2011

  Actual Average Record
Temperature  
Mean Temperature 45 °F 40 °F  
Max Temperature 66 °F 54 °F 70 °F (1966)
Min Temperature 23 °F 25 °F -3 °F (1991)
Degree Days  
Heating Degree Days 20 25  
Month to date heating degree days 587 606  
Since 1 July heating degree days 806 1025  
Cooling Degree Days 0 0  
Month to date cooling degree days 0 0  
Year to date cooling degree days 144 215  
Moisture  
Dew Point 35 °F    
Average Humidity 68    
Maximum Humidity 96    
Minimum Humidity 40    
Precipitation  
Precipitation T in 0.04 in 0.40 in (2001)
Month to date precipitation 1.34 0.75  
Year to date precipitation 9.64 8.17  
Sea Level Pressure  
Sea Level Pressure 30.24 in    
Wind  
Wind Speed 4 mph (WSW)    
Max Wind Speed 15 mph    
Max Gust Speed 21 mph    
Visibility 9 miles    
Events Rain    
T = Trace of Precipitation, MM = Missing Value Source: NWS Daily Summary

Daily Weather History Graph

Daily Weather History Graph

Search for Another Location

Airport or City:

Trip Planner

Search our weather history database for the weather conditions in past years. The results will help you decide how hot, cold, wet, or windy it might be!

Date:

Astronomy

Oct. 30, 2011 Rise Set
Actual Time 7:28 AM PDT 5:49 PM PDT
Civil Twilight 6:58 AM PDT 6:19 PM PDT
Nautical Twilight 6:25 AM PDT 6:53 PM PDT
Astronomical Twilight 5:51 AM PDT 7:26 PM PDT
Moon 11:57 AM PDT (10/30) 9:18 PM PDT (10/30)
Length of Visible Light 11h 20m
Length of Day
10h 21m
Waxing Crescent, 21% of the Moon is Illuminated
Oct 30
Waxing Crescent
Nov 2
First Quarter
Nov 10
Full
Nov 18
Last Quarter
Nov 24
New

Hourly Weather History & Observations

Time (PDT) Temp. Windchill Dew Point Humidity Pressure Visibility Wind Dir Wind Speed Gust Speed Precip Events Conditions
12:53 AM 28.9 °F 23.9 °F 24.1 °F 82% 30.29 in 10.0 mi NW 4.6 mph - N/A   Clear
1:53 AM 28.0 °F - 23.0 °F 81% 30.29 in 9.0 mi Calm Calm - N/A   Clear
2:53 AM 28.0 °F 21.7 °F 24.1 °F 85% 30.28 in 10.0 mi WSW 5.8 mph - N/A   Clear
3:53 AM 25.0 °F 19.3 °F 23.0 °F 92% 30.29 in 10.0 mi WSW 4.6 mph - N/A   Clear
4:53 AM 23.0 °F 18.4 °F 21.0 °F 92% 30.30 in 10.0 mi North 3.5 mph - N/A   Clear
6:53 AM 25.0 °F - 21.9 °F 88% 30.34 in 10.0 mi Calm Calm - N/A   Clear
7:53 AM 26.1 °F 21.9 °F 24.1 °F 92% 30.36 in 10.0 mi WSW 3.5 mph - N/A   Clear
8:53 AM 34.0 °F - 28.9 °F 82% 30.34 in 10.0 mi Calm Calm - N/A   Clear
9:53 AM 43.0 °F - 32.0 °F 65% 30.32 in 10.0 mi Calm Calm - N/A   Clear
10:53 AM 50.0 °F - 33.1 °F 52% 30.31 in 10.0 mi Calm Calm - N/A   Mostly Cloudy
11:53 AM 52.0 °F - 35.1 °F 53% 30.30 in 10.0 mi Variable 4.6 mph - N/A   Partly Cloudy
12:53 PM 57.0 °F - 37.0 °F 47% 30.25 in 10.0 mi Calm Calm - N/A   Clear
1:53 PM 60.1 °F - 39.0 °F 46% 30.22 in 9.0 mi Variable 3.5 mph - N/A   Partly Cloudy
2:53 PM 62.1 °F - 39.9 °F 44% 30.18 in 9.0 mi Variable 3.5 mph - N/A   Clear
3:53 PM 66.0 °F - 41.0 °F 40% 30.15 in 5.0 mi WSW 8.1 mph - N/A   Haze
4:53 PM 57.9 °F - 39.9 °F 51% 30.16 in 10.0 mi SSW 5.8 mph - N/A   Clear
5:53 PM 57.9 °F - 39.9 °F 51% 30.15 in 10.0 mi SE 5.8 mph - N/A   Overcast
6:53 PM 55.9 °F - 45.0 °F 67% 30.17 in 6.0 mi WNW 10.4 mph 20.7 mph 0.00 in Rain Light Rain
7:53 PM 52.0 °F - 46.9 °F 83% 30.18 in 9.0 mi West 4.6 mph - 0.00 in   Overcast
8:53 PM 51.1 °F - 46.9 °F 86% 30.17 in 8.0 mi West 5.8 mph - N/A   Overcast
9:53 PM 50.0 °F - 46.0 °F 86% 30.14 in 8.0 mi West 3.5 mph - N/A   Mostly Cloudy
10:53 PM 44.1 °F 40.8 °F 43.0 °F 96% 30.15 in 10.0 mi South 5.8 mph - N/A   Scattered Clouds
11:53 PM 41.0 °F 38.0 °F 39.9 °F 96% 30.15 in 10.0 mi SSW 4.6 mph - N/A   Clear